Accueil
METAR-TAF:

METAR-TAF

Aéroports :

Greenville, Maine, États-Unis

latitude: 45-28N, longitude: 069-35W, altitude: 427 m

Observation

Le bulletin a été fait il y a 1 heure et 15 minutes, à 12:56 UTC
Vent 10 kt de nord/nord-ouest avec des rafales jusqu'à 20 kt
Température 7°C
Humidité 53%
Pression 1017 hPa

METAR: KGNR 011256Z AUTO 33010G20KT 07/M02 A3004 RMK AO1 SLP185 T00721017

Heure: 10:11 (14:11 UTC)


TAF: absent

Observations et prévisions météorologiques de plus de 4000 aéroports (messages METAR et TAF).

Les stations disponibles sont représentées par des disques jaunes et rouges sur la carte.

Passer la souris dessus pour voir le nom de la station.

Cliquer dessus pour voir les observations et prévisions météorologiques.

Pour changer de carte: cliquez sur les boutons verts avec une croix noire pour zoomer, sur le bouton vert avec un tiret pour effectuer un zoom arrière, ou sur les flèches vertes pour les cartes adjacentes.


METAR-TAF: